Regional Weather Roundup
Issued by NWS

Home | Current Version | Previous Version | Text Only | Print | Product List | Glossary Off
Versions: 1 2 3 4 5 6 7 8 9 10 11 12 13 14 15 16 17 18 19 20 21 22 23 24 25 26 27 28 29 30 31 32 33 34 35 36 37 38 39 40 41 42 43 44 45 46 47 48 49 50

000
ASUS43 KMKX 301103
RWRWI

WISCONSIN REGIONAL WEATHER ROUNDUP
NATIONAL WEATHER SERVICE MILWAUKEE/SULLIVAN WI
600 AM CDT SAT MAY 30 2015

NOTE: "FAIR" INDICATES FEW OR NO CLOUDS BELOW 12,000 FEET WITH NO
SIGNIFICANT WEATHER AND/OR OBSTRUCTIONS TO VISIBILITY.

WIZ001-002-006>008-014>016-023>028-301200-
NORTHWEST WISCONSIN

CITY           SKY/WX    TMP DP  RH WIND       PRES   REMARKS
SUPERIOR ARPT  CLEAR     44  37  74 N8        30.19R
ASHLAND        CLOUDY    47  41  80 N13       30.16R
HAYWARD        CLEAR     45  40  82 N8        30.14R
SIREN          CLEAR     43  38  84 N7        30.16R
CUMBERLAND     MOCLDY    45  37  76 N13G22    30.12R
RICE LAKE      MOCLDY    48  41  75 N10G22    30.13R
CHETEK         CLOUDY    49  45  85 NW7       30.11R
LADYSMITH      CLOUDY    49  46  87 N12G18    30.12R
EAU CLAIRE     CLOUDY    51  45  79 N10       30.08R
MENOMONIE      MOCLDY    50  46  84 N8        30.10R
NEW RICHMOND   PTCLDY    46  41  83 N9        30.14R
OSCEOLA        PTCLDY    44  43  97 N9        30.18R
$$

WIZ003>005-009-010-017-018-301200-
NORTH CENTRAL WISCONSIN

CITY           SKY/WX    TMP DP  RH WIND       PRES   REMARKS
MANITOWISH WTR CLOUDY    46  46 100 N10       30.08S FOG
ARBOR VITAE    CLOUDY    49  48  95 N10       30.08R FOG
WOODRUFF       CLOUDY    49  48  95 N10       30.08R FOG
RHINELANDER    CLOUDY    51  48  89 N8G17     30.07R
EAGLE RIVER    CLOUDY    49  47  96 NE10      30.07R
LAND O LAKES   CLOUDY    49  47  96 NE7       30.09R FOG
PHILLIPS       CLOUDY    47  45  92 N10       30.09R
TOMAHAWK       CLOUDY    48  47  96 N6        30.07R FOG
MEDFORD        CLOUDY    49  47  96 N12       30.06R
MERRILL        CLOUDY    51  51  99 N8        30.05R
$$

WIZ029-030-035-036-043>047-301200-
CENTRAL WISCONSIN

CITY           SKY/WX    TMP DP  RH WIND       PRES   REMARKS
WAUSAU         CLOUDY    54  49  83 N7        30.03R
MOSINEE        CLOUDY    54  52  94 MISG      30.04R
MARSHFIELD     LGT RAIN  54  50  86 N10G20    30.03R
STEVENS POINT  LGT RAIN  55  53  95 N13       30.01R
WAUPACA        LGT RAIN  56  55  95 NE15G22   30.00R
WAUTOMA        RAIN      57  57 100 NE12G18   29.98R FOG
WISC RAPIDS    LGT RAIN  58  53  84 NE16      30.02R
CAMP DOUGLAS   LGT RAIN  57  57 100 N10G20    29.98R
$$

WIZ011>013-019>022-031-037>040-048>050-301200-
NORTHEAST WISCONSIN

CITY           SKY/WX    TMP DP  RH WIND       PRES   REMARKS
ANTIGO         CLOUDY    51  48  90 N9G17     30.04R
SHAWANO        LGT RAIN  54  53  95 NE14      30.02R
OCONTO         CLOUDY    52  52 100 N8        30.02R
STURGEON BAY   CLOUDY    52  46  82 N14       30.05R
GREEN BAY      LGT RAIN  54  51  90 NE20      30.02R FOG
MANITOWOC      LGT RAIN  54  52  94 NE14G21   30.01R
APPLETON       LGT RAIN  55  55 100 N13       30.00R FOG
CLINTONVILLE   RAIN      54  50  87 NE9       30.01R
OSHKOSH        LGT RAIN  58  55  90 NE18      29.98R
$$

WIZ032>034-041-042-053>061-301200-
SOUTHWEST WISCONSIN

CITY           SKY/WX    TMP DP  RH WIND       PRES   REMARKS
LA CROSSE      CLOUDY    57  53  86 N15G28    30.02R
SPARTA         DRIZZLE   56  54  93 N7G16     30.02R
VIROQUA        CLOUDY    57  57 100 N18       29.98R
BOSCOBEL       CLOUDY    64  59  83 N9        29.95R
PRAIRIE DU CHI CLOUDY    62  58  86 NW12G18   29.94R
PLATTEVILLE    CLOUDY    65  64  96 SW6       29.94R
$$

WIZ056-057-062-063-064-067-068-301200-
SOUTH CENTRAL WISCONSIN

CITY           SKY/WX    TMP DP  RH WIND       PRES   REMARKS
REEDSBURG      LGT RAIN  61  61  98 N14G20    29.93R
BARABOO/DELLS  CLOUDY    63  62  95 N6        29.93R
LONE ROCK      CLOUDY    67  64  90 SW3       29.92R
MINERAL POINT  CLOUDY    64  63  94 SW3       29.93R
MADISON        CLOUDY    67  63  87 SW3       29.93R
MIDDLETON      CLOUDY    67  65  96 SW6       29.93R
WATERTOWN      CLOUDY   N/A N/A N/A SE3       29.92S
MONROE         CLOUDY    64  61  88 SW7       29.94R
JANESVILLE     DRIZZLE   66  64  94 S5        29.93S
$$

WIZ051-052-058>065-066-070>072-301200-
SOUTHEAST WISCONSIN

CITY           SKY/WX    TMP DP  RH WIND       PRES   REMARKS
MILWAUKEE      LGT RAIN  64  61  90 NE5       29.96R FOG
WAUKESHA       LGT RAIN  64  63  94 CALM      29.96R
MILWAUKEE/TIMM LGT RAIN  64  61  88 E7        29.96R
RACINE         LGT RAIN  65  63  93 CALM      29.97R FOG
BURLINGTON     RAIN      64  63  97 CALM      29.95R
KENOSHA        LGT RAIN  66  64  93 W5        29.95R
FOND DU LAC    LGT RAIN  59  57  93 E16G26    29.96R
SHEBOYGAN      CLOUDY    53  51  93 NE18      29.99R
WEST BEND      LGT RAIN  63  61  94 E12G23    29.96R
JUNEAU         CLOUDY    64  63  97 SE7       29.94R
$$

LSZ147-162-301200-
LAKE SUPERIOR

STATION/POSITION TIME  TEMP    WIND        PRES    WAVE
                       AIR SEA DIR/SP/G            HT/PER
                 (UTC) (F)     (DEG/KT/KT) (MB)    (FT/S)
W MID LAKE BUOY  0950   40 37  360/  6/  6   N/A     1/ 4
DEVILS ISLAND    1000   44     350/ 11/ 13   N/A
PORT WING        1000   46     350/  4/  6   N/A
SAXON HARBOR     0900   50     320/ 11/ 13   N/A
$$

LMZ867-665-643>646-301200-
LAKE MICHIGAN

STATION/POSITION TIME  TEMP    WIND        PRES    WAVE
                       AIR SEA DIR/SP/G            HT/PER
                 (UTC) (F)     (DEG/KT/KT) (MB)    (FT/S)
CHAMBERS ISLAND  1000   53     340/ 10/ 13   N/A
N MID LAKE BUOY  0950   42 37  320/  8/ 10   N/A     1/ 3
NORTHPORT PIER   1000   52     350/ 15/ 19   N/A
SISTER BAY       1018   50     360/ 14/ 18   N/A
ALGOMA LAKESHORE 0923          360/ 10/ 15   N/A
KEWAUNEE LAKESHO 1000   48      30/  5/ 10   N/A
SHEBOYGAN LAKESH 1000   49      20/ 14/ 15   N/A
PORT WASHINGTON  1040   53      30/ 11/ 16   N/A
ATWATER BUOY     1000   53     350/  2/  4   N/A
MILWAUKEE LAKESH 1000   58     350/  1/  1   N/A
S MID LAKE BUOY  0950   46 38  180/  4/  4   N/A     1
KENOSHA   LAKESH 1000   65      10/  3/  7   N/A
$$

TC  - TEMPERATURE IN CELSIUS
VSB - VISIBILITY IN STATUTE MILES
WCI - WIND CHILL INDEX
HX  - HEAT INDEX



USA.gov is the U.S. government's official web portal to all federal, state and local government web resources and services.